Terminal Aerodrome Forecast
Issued by NWS

Home | Current Version | Previous Version | Text Only | Print | Product List | Glossary On
Versions: 1 2 3 4 5 6 7 8 9 10 11 12 13 14 15
000
FTUS43 KUNR 271700
TAFGCC
TAF
KGCC 271720Z 2718/2818 23011KT P6SM BKN120=

USA.gov is the U.S. government's official web portal to all federal, state and local government web resources and services.